| time (UTC) | temp C | wind direction | speed KPH | gust KPH | rain 1hr cm | rain 24hr cm | rain mn cm | humidity % | barometer mb |
| 20260504235031 | 22 | 0 | 0.0 | 4.8 | 0.00 | 0.00 | 0.00 | 39 | 1016.4 |
| 20260504234536 | 22 | 0 | 0.0 | 6.4 | 0.00 | 0.00 | 0.00 | 37 | 1016.5 |
| 20260504234030 | 22 | 0 | 1.6 | 6.4 | 0.00 | 0.00 | 0.00 | 37 | 1016.4 |
| 20260504233530 | 22 | 0 | 0.0 | 4.8 | 0.00 | 0.00 | 0.00 | 37 | 1016.5 |
| 20260504233045 | 23 | 0 | 0.0 | 4.8 | 0.00 | 0.00 | 0.00 | 35 | 1016.6 |
| 20260504232530 | 23 | 0 | 0.0 | 4.8 | 0.00 | 0.00 | 0.00 | 34 | 1016.6 |
| 20260504232029 | 23 | 0 | 0.0 | 9.7 | 0.00 | 0.00 | 0.00 | 33 | 1016.5 |
| 20260504231539 | 23 | 0 | 0.0 | 9.7 | 0.00 | 0.00 | 0.00 | 33 | 1016.5 |
| 20260504231029 | 23 | 0 | 1.6 | 8.0 | 0.00 | 0.00 | 0.00 | 33 | 1016.5 |
| 20260504230530 | 23 | 0 | 0.0 | 4.8 | 0.00 | 0.00 | 0.00 | 32 | 1016.5 |
| 20260504230110 | 23 | 221 | 0.0 | 11.3 | 0.00 | 0.00 | 0.00 | 33 | 1016.4 |
| 20260504225530 | 23 | 0 | 1.6 | 11.3 | 0.00 | 0.00 | 0.00 | 31 | 1016.3 |
| 20260504225029 | 24 | 250 | 3.2 | 9.7 | 0.00 | 0.00 | 0.00 | 31 | 1016.3 |
| 20260504224545 | 24 | 262 | 0.0 | 8.0 | 0.00 | 0.00 | 0.00 | 31 | 1016.3 |
| 20260504224030 | 24 | 300 | 1.6 | 8.0 | 0.00 | 0.00 | 0.00 | 30 | 1016.4 |
| 20260504223530 | 24 | 0 | 0.0 | 4.8 | 0.00 | 0.00 | 0.00 | 30 | 1016.4 |
| 20260504223056 | 24 | 238 | 0.0 | 6.4 | 0.00 | 0.00 | 0.00 | 30 | 1016.5 |
| 20260504222530 | 24 | 0 | 1.6 | 9.7 | 0.00 | 0.00 | 0.00 | 30 | 1016.4 |
| 20260504222030 | 25 | 258 | 1.6 | 14.5 | 0.00 | 0.00 | 0.00 | 32 | 1016.3 |
| 20260504221542 | 25 | 255 | 4.8 | 14.5 | 0.00 | 0.00 | 0.00 | 32 | 1016.5 |
| 20260504221030 | 25 | 267 | 1.6 | 9.7 | 0.00 | 0.00 | 0.00 | 32 | 1016.5 |
| 20260504220530 | 25 | 0 | 0.0 | 11.3 | 0.00 | 0.00 | 0.00 | 33 | 1016.6 |
| 20260504220042 | 25 | 248 | 1.6 | 11.3 | 0.00 | 0.00 | 0.00 | 33 | 1016.5 |
| 20260504215531 | 25 | 0 | 0.0 | 3.2 | 0.00 | 0.00 | 0.00 | 32 | 1016.4 |
| 20260504215034 | 25 | 0 | 0.0 | 1.6 | 0.00 | 0.00 | 0.00 | 31 | 1016.5 |
| 20260504214541 | 25 | 0 | 0.0 | 6.4 | 0.00 | 0.00 | 0.00 | 30 | 1016.4 |
| 20260504214033 | 25 | 247 | 0.0 | 6.4 | 0.00 | 0.00 | 0.00 | 28 | 1016.4 |
| 20260504213530 | 25 | 219 | 1.6 | 6.4 | 0.00 | 0.00 | 0.00 | 27 | 1016.5 |
| 20260504213038 | 25 | 215 | 0.0 | 4.8 | 0.00 | 0.00 | 0.00 | 27 | 1016.4 |
| 20260504212531 | 25 | 0 | 0.0 | 6.4 | 0.00 | 0.00 | 0.00 | 27 | 1016.4 |
| 20260504212031 | 25 | 300 | 0.0 | 6.4 | 0.00 | 0.00 | 0.00 | 29 | 1016.4 |
| 20260504211604 | 25 | 0 | 0.0 | 4.8 | 0.00 | 0.00 | 0.00 | 28 | 1016.4 |
| 20260504211031 | 25 | 0 | 0.0 | 12.9 | 0.00 | 0.00 | 0.00 | 29 | 1016.3 |
| 20260504210533 | 25 | 240 | 3.2 | 12.9 | 0.00 | 0.00 | 0.00 | 27 | 1016.5 |
| 20260504210046 | 25 | 0 | 1.6 | 6.4 | 0.00 | 0.00 | 0.00 | 25 | 1016.5 |
| 20260504205530 | 25 | 0 | 1.6 | 8.0 | 0.00 | 0.00 | 0.00 | 27 | 1016.5 |
| 20260504205032 | 25 | 234 | 0.0 | 9.7 | 0.00 | 0.00 | 0.00 | 27 | 1016.4 |
| 20260504204542 | 25 | 266 | 3.2 | 9.7 | 0.00 | 0.00 | 0.00 | 25 | 1016.5 |
| 20260504204031 | 26 | 276 | 0.0 | 6.4 | 0.00 | 0.00 | 0.00 | 28 | 1016.5 |
| 20260504203531 | 25 | 319 | 1.6 | 11.3 | 0.00 | 0.00 | 0.00 | 28 | 1016.6 |
| 20260504203044 | 26 | 190 | 3.2 | 11.3 | 0.00 | 0.00 | 0.00 | 28 | 1016.8 |
| 20260504202530 | 25 | 0 | 4.8 | 12.9 | 0.00 | 0.00 | 0.00 | 28 | 1016.9 |
| 20260504202030 | 26 | 190 | 3.2 | 12.9 | 0.00 | 0.00 | 0.00 | 28 | 1016.8 |
| 20260504201542 | 26 | 200 | 1.6 | 4.8 | 0.00 | 0.00 | 0.00 | 31 | 1016.8 |
| 20260504201030 | 26 | 0 | 0.0 | 6.4 | 0.00 | 0.00 | 0.00 | 30 | 1016.8 |
| 20260504200530 | 26 | 329 | 0.0 | 6.4 | 0.00 | 0.00 | 0.00 | 28 | 1016.8 |
| 20260504200039 | 26 | 222 | 0.0 | 14.5 | 0.00 | 0.00 | 0.00 | 30 | 1016.9 |
| 20260504195531 | 26 | 29 | 1.6 | 14.5 | 0.00 | 0.00 | 0.00 | 31 | 1016.8 |
| 20260504195030 | 26 | 231 | 1.6 | 11.3 | 0.00 | 0.00 | 0.00 | 29 | 1016.9 |
| 20260504194549 | 26 | 0 | 0.0 | 6.4 | 0.00 | 0.00 | 0.00 | 30 | 1017.0 |
| 20260504194030 | 26 | 236 | 1.6 | 6.4 | 0.00 | 0.00 | 0.00 | 28 | 1017.0 |
| 20260504193531 | 26 | 0 | 1.6 | 4.8 | 0.00 | 0.00 | 0.00 | 30 | 1017.2 |
| 20260504193051 | 26 | 262 | 1.6 | 6.4 | 0.00 | 0.00 | 0.00 | 28 | 1017.3 |
| 20260504192529 | 26 | 0 | 1.6 | 6.4 | 0.00 | 0.00 | 0.00 | 28 | 1017.4 |
| 20260504192030 | 25 | 0 | 3.2 | 6.4 | 0.00 | 0.00 | 0.00 | 30 | 1017.5 |
| 20260504191556 | 25 | 335 | 1.6 | 6.4 | 0.00 | 0.00 | 0.00 | 30 | 1017.5 |
| 20260504191031 | 25 | 0 | 0.0 | 6.4 | 0.00 | 0.00 | 0.00 | 30 | 1017.5 |
| 20260504190531 | 25 | 0 | 1.6 | 6.4 | 0.00 | 0.00 | 0.00 | 30 | 1017.6 |
| 20260504190104 | 25 | 197 | 1.6 | 8.0 | 0.00 | 0.00 | 0.00 | 31 | 1017.8 |
| 20260504185532 | 25 | 0 | 0.0 | 9.7 | 0.00 | 0.00 | 0.00 | 31 | 1018.0 |
| 20260504185030 | 25 | 244 | 3.2 | 9.7 | 0.00 | 0.00 | 0.00 | 32 | 1018.0 |
| 20260504184548 | 24 | 236 | 1.6 | 8.0 | 0.00 | 0.00 | 0.00 | 34 | 1018.0 |
| 20260504184033 | 24 | 0 | 4.8 | 8.0 | 0.00 | 0.00 | 0.00 | 29 | 1018.1 |
| 20260504183531 | 24 | 20 | 1.6 | 9.7 | 0.00 | 0.00 | 0.00 | 30 | 1018.3 |
| 20260504183045 | 24 | 250 | 3.2 | 11.3 | 0.00 | 0.00 | 0.00 | 30 | 1018.1 |
| 20260504182530 | 24 | 269 | 1.6 | 11.3 | 0.00 | 0.00 | 0.00 | 34 | 1018.2 |
| 20260504182031 | 24 | 0 | 3.2 | 9.7 | 0.00 | 0.00 | 0.00 | 30 | 1018.2 |
| 20260504181544 | 24 | 111 | 3.2 | 11.3 | 0.00 | 0.00 | 0.00 | 30 | 1018.2 |
| 20260504181030 | 24 | 278 | 1.6 | 11.3 | 0.00 | 0.00 | 0.00 | 33 | 1018.2 |
| 20260504180530 | 23 | 303 | 1.6 | 9.7 | 0.00 | 0.00 | 0.00 | 34 | 1018.2 |
| 20260504180042 | 23 | 0 | 1.6 | 11.3 | 0.00 | 0.00 | 0.00 | 34 | 1018.3 |
| 20260504175529 | 23 | 190 | 3.2 | 11.3 | 0.00 | 0.00 | 0.00 | 32 | 1018.4 |
| 20260504175030 | 23 | 200 | 3.2 | 9.7 | 0.00 | 0.00 | 0.00 | 34 | 1018.4 |
| 20260504174544 | 23 | 292 | 3.2 | 9.7 | 0.00 | 0.00 | 0.00 | 34 | 1018.4 |
| 20260504174030 | 23 | 256 | 3.2 | 12.9 | 0.00 | 0.00 | 0.00 | 34 | 1018.5 |
| 20260504173530 | 23 | 65 | 3.2 | 12.9 | 0.00 | 0.00 | 0.00 | 32 | 1018.5 |
| 20260504173048 | 23 | 94 | 6.4 | 12.9 | 0.00 | 0.00 | 0.00 | 33 | 1018.6 |
| 20260504172529 | 23 | 60 | 1.6 | 8.0 | 0.00 | 0.00 | 0.00 | 34 | 1018.6 |
| 20260504172030 | 23 | 242 | 1.6 | 8.0 | 0.00 | 0.00 | 0.00 | 33 | 1018.7 |
| 20260504171540 | 23 | 203 | 0.0 | 6.4 | 0.00 | 0.00 | 0.00 | 33 | 1018.8 |
| 20260504171031 | 22 | 234 | 3.2 | 6.4 | 0.00 | 0.00 | 0.00 | 33 | 1018.8 |
| 20260504170531 | 22 | 289 | 1.6 | 8.0 | 0.00 | 0.00 | 0.00 | 34 | 1018.9 |
| 20260504151030 | 21 | 152 | 1.6 | 4.8 | 0.00 | 0.00 | 0.00 | 36 | 1020.1 |
| 20260504150531 | 21 | 255 | 0.0 | 4.8 | 0.00 | 0.00 | 0.00 | 39 | 1020.2 |
| 20260504141029 | 20 | 68 | 0.0 | 6.4 | 0.00 | 0.00 | 0.00 | 43 | 1020.2 |
| 20260504140530 | 20 | 0 | 1.6 | 6.4 | 0.00 | 0.00 | 0.00 | 44 | 1020.2 |
| 20260504130531 | 16 | 0 | 0.0 | 1.6 | 0.00 | 0.00 | 0.00 | 72 | 1020.3 |
| 20260504110531 | 6 | 0 | 0.0 | 0.0 | 0.00 | 0.00 | 0.00 | 94 | 1019.6 |
| 20260504100530 | 6 | 0 | 0.0 | 0.0 | 0.00 | 0.00 | 0.00 | 93 | 1019.6 |
| 20260504081545 | 7 | 0 | 0.0 | 0.0 | 0.00 | 0.00 | 0.00 | 91 | 1019.5 |
| 20260504081032 | 7 | 0 | 0.0 | 0.0 | 0.00 | 0.00 | 0.00 | 91 | 1019.6 |
| 20260504080532 | 7 | 0 | 0.0 | 0.0 | 0.00 | 0.00 | 0.00 | 91 | 1019.6 |
| 20260504050531 | 9 | 0 | 0.0 | 1.6 | 0.00 | 0.00 | 0.00 | 86 | 1020.1 |
| 20260504045530 | 9 | 0 | 0.0 | 1.6 | 0.00 | 0.00 | 0.00 | 86 | 1020.2 |
| 20260504045032 | 9 | 0 | 0.0 | 0.0 | 0.00 | 0.00 | 0.00 | 85 | 1020.1 |
| 20260504044538 | 9 | 0 | 0.0 | 0.0 | 0.00 | 0.00 | 0.00 | 86 | 1020.1 |
| 20260504044030 | 9 | 0 | 0.0 | 0.0 | 0.00 | 0.00 | 0.00 | 85 | 1020.0 |
| 20260504043529 | 9 | 0 | 0.0 | 0.0 | 0.00 | 0.00 | 0.00 | 85 | 1020.0 |
| 20260504043043 | 9 | 0 | 0.0 | 0.0 | 0.00 | 0.00 | 0.00 | 85 | 1020.0 |
| 20260504042532 | 10 | 0 | 0.0 | 0.0 | 0.00 | 0.00 | 0.00 | 85 | 1020.2 |
| 20260504042030 | 10 | 0 | 0.0 | 0.0 | 0.00 | 0.00 | 0.00 | 85 | 1020.2 |
| 20260504041538 | 10 | 0 | 0.0 | 0.0 | 0.00 | 0.00 | 0.00 | 85 | 1020.1 |
| 20260504041029 | 10 | 0 | 0.0 | 0.0 | 0.00 | 0.00 | 0.00 | 85 | 1020.1 |
| 20260504040526 | 10 | 0 | 0.0 | 0.0 | 0.00 | 0.00 | 0.00 | 85 | 1020.1 |
| 20260504040107 | 10 | 0 | 0.0 | 0.0 | 0.00 | 0.00 | 0.00 | 85 | 1020.1 |
| 20260504035530 | 10 | 0 | 0.0 | 0.0 | 0.00 | 0.00 | 0.00 | 84 | 1020.0 |
| 20260504035026 | 10 | 0 | 0.0 | 0.0 | 0.00 | 0.00 | 0.00 | 84 | 1020.0 |
| 20260504034543 | 10 | 0 | 0.0 | 0.0 | 0.00 | 0.00 | 0.00 | 83 | 1020.0 |
| 20260504034030 | 10 | 0 | 0.0 | 0.0 | 0.00 | 0.00 | 0.00 | 83 | 1020.1 |
| 20260504033526 | 10 | 0 | 0.0 | 0.0 | 0.00 | 0.00 | 0.00 | 83 | 1020.1 |
| 20260504033045 | 10 | 0 | 0.0 | 0.0 | 0.00 | 0.00 | 0.00 | 83 | 1020.1 |
| 20260504032530 | 10 | 0 | 0.0 | 0.0 | 0.00 | 0.00 | 0.00 | 82 | 1020.0 |
| 20260504032030 | 10 | 0 | 0.0 | 0.0 | 0.00 | 0.00 | 0.00 | 82 | 1019.9 |
| 20260504031553 | 10 | 0 | 0.0 | 0.0 | 0.00 | 0.00 | 0.00 | 81 | 1019.9 |
| 20260504031034 | 10 | 0 | 0.0 | 0.0 | 0.00 | 0.00 | 0.00 | 81 | 1020.0 |
| 20260504030529 | 10 | 0 | 0.0 | 0.0 | 0.00 | 0.00 | 0.00 | 80 | 1019.9 |
| 20260504030044 | 10 | 0 | 0.0 | 0.0 | 0.00 | 0.00 | 0.00 | 79 | 1020.0 |
| 20260504025530 | 11 | 0 | 0.0 | 0.0 | 0.00 | 0.00 | 0.00 | 80 | 1020.0 |
| 20260504025029 | 11 | 0 | 0.0 | 0.0 | 0.00 | 0.00 | 0.00 | 79 | 1019.9 |
| 20260504024544 | 11 | 0 | 0.0 | 0.0 | 0.00 | 0.00 | 0.00 | 79 | 1019.9 |
| 20260504024027 | 11 | 0 | 0.0 | 0.0 | 0.00 | 0.00 | 0.00 | 79 | 1020.0 |
| 20260504023529 | 11 | 0 | 0.0 | 0.0 | 0.00 | 0.00 | 0.00 | 79 | 1019.8 |
| 20260504023042 | 11 | 0 | 0.0 | 0.0 | 0.00 | 0.00 | 0.00 | 78 | 1019.8 |
| 20260504022531 | 11 | 0 | 0.0 | 0.0 | 0.00 | 0.00 | 0.00 | 77 | 1019.7 |
| 20260504022030 | 11 | 0 | 0.0 | 0.0 | 0.00 | 0.00 | 0.00 | 76 | 1019.7 |
| 20260504021543 | 11 | 0 | 0.0 | 0.0 | 0.00 | 0.00 | 0.00 | 75 | 1019.7 |
| 20260504021030 | 12 | 0 | 0.0 | 0.0 | 0.00 | 0.00 | 0.00 | 74 | 1019.6 |
| 20260504020529 | 12 | 0 | 0.0 | 0.0 | 0.00 | 0.00 | 0.00 | 73 | 1019.6 |
| 20260504020046 | 12 | 0 | 0.0 | 0.0 | 0.00 | 0.00 | 0.00 | 72 | 1019.5 |
| 20260504015534 | 12 | 0 | 0.0 | 0.0 | 0.00 | 0.00 | 0.00 | 71 | 1019.4 |
| 20260504015030 | 12 | 0 | 0.0 | 0.0 | 0.00 | 0.00 | 0.00 | 70 | 1019.5 |
| 20260504014543 | 12 | 0 | 0.0 | 0.0 | 0.00 | 0.00 | 0.00 | 70 | 1019.4 |
| 20260504014031 | 12 | 0 | 0.0 | 0.0 | 0.00 | 0.00 | 0.00 | 69 | 1019.4 |
| 20260504013530 | 13 | 0 | 0.0 | 0.0 | 0.00 | 0.00 | 0.00 | 68 | 1019.3 |
| 20260504013046 | 13 | 0 | 0.0 | 0.0 | 0.00 | 0.00 | 0.00 | 67 | 1019.4 |
| 20260504012530 | 13 | 0 | 0.0 | 0.0 | 0.00 | 0.00 | 0.00 | 67 | 1019.3 |
| 20260504012030 | 13 | 0 | 0.0 | 0.0 | 0.00 | 0.00 | 0.00 | 65 | 1019.2 |
| 20260504011543 | 13 | 0 | 0.0 | 0.0 | 0.00 | 0.00 | 0.00 | 64 | 1019.1 |
| 20260504011031 | 14 | 0 | 0.0 | 0.0 | 0.00 | 0.00 | 0.00 | 64 | 1019.1 |
| 20260504010532 | 14 | 0 | 0.0 | 0.0 | 0.00 | 0.00 | 0.00 | 62 | 1019.0 |
| 20260504010048 | 15 | 0 | 0.0 | 0.0 | 0.00 | 0.00 | 0.00 | 62 | 1018.9 |
| 20260504005532 | 15 | 0 | 0.0 | 0.0 | 0.00 | 0.00 | 0.00 | 61 | 1018.8 |
| 20260504005031 | 15 | 0 | 0.0 | 0.0 | 0.00 | 0.00 | 0.00 | 60 | 1018.8 |
| 20260504004549 | 15 | 0 | 0.0 | 0.0 | 0.00 | 0.00 | 0.00 | 57 | 1018.7 |
| 20260504004031 | 16 | 0 | 0.0 | 0.0 | 0.00 | 0.00 | 0.00 | 57 | 1018.6 |
| 20260504003530 | 16 | 0 | 0.0 | 0.0 | 0.00 | 0.00 | 0.00 | 55 | 1018.6 |
| 20260504003041 | 16 | 0 | 0.0 | 0.0 | 0.00 | 0.00 | 0.00 | 53 | 1018.4 |
| 20260504002529 | 17 | 0 | 0.0 | 0.0 | 0.00 | 0.00 | 0.00 | 52 | 1018.5 |
| 20260504002030 | 17 | 0 | 0.0 | 0.0 | 0.00 | 0.00 | 0.00 | 50 | 1018.5 |
| 20260504001552 | 17 | 0 | 0.0 | 0.0 | 0.00 | 0.00 | 0.00 | 48 | 1018.4 |
| 20260504001030 | 18 | 0 | 0.0 | 0.0 | 0.00 | 0.00 | 0.00 | 47 | 1018.4 |
| 20260504000530 | 18 | 0 | 0.0 | 0.0 | 0.00 | 0.00 | 0.00 | 46 | 1018.4 |
| 20260504000050 | 18 | 0 | 0.0 | 0.0 | 0.00 | 0.00 | 0.00 | 44 | 1018.4 |
| 20260503235534 | 18 | 0 | 0.0 | 1.6 | 0.00 | 0.00 | 0.00 | 44 | 1018.4 |